Radiation Dose measured at exhaust stack monitor of Fukushima Daiichi Nuclear Power Station
Date,Time,Unit 5 6 shared exhaust cylinders,Wind Direction,Wind Velocity(m/s)
2021/04/05,00:00,3.8,south-southwest,4.0
2021/04/05,00:10,4.0,south-southwest,3.5
2021/04/05,00:20,3.8,southwest,3.7
2021/04/05,00:30,3.9,southwest,3.6
2021/04/05,00:40,3.9,southwest,4.1
2021/04/05,00:50,4.0,south-southwest,5.4
2021/04/05,01:00,4.0,south-southwest,4.0
2021/04/05,01:10,3.7,south-southwest,2.5
2021/04/05,01:20,3.9,west,1.5
2021/04/05,01:30,3.9,north-northwest,2.8
2021/04/05,01:40,3.9,northwest,3.6
2021/04/05,01:50,3.8,north-northwest,2.6
2021/04/05,02:00,3.9,northwest,2.6
2021/04/05,02:10,4.0,northwest,3.9
2021/04/05,02:20,3.9,west-northwest,3.9
2021/04/05,02:30,3.8,northwest,6.0
2021/04/05,02:40,4.0,northwest,7.6
2021/04/05,02:50,4.0,west-northwest,5.8
2021/04/05,03:00,4.0,northwest,4.0
2021/04/05,03:10,3.8,northwest,4.7
2021/04/05,03:20,3.8,northwest,5.2
2021/04/05,03:30,3.9,north,4.6
2021/04/05,03:40,3.8,north-northeast,7.4
2021/04/05,03:50,3.9,north,7.1
2021/04/05,04:00,3.8,north-northeast,8.3
2021/04/05,04:10,4.1,north-northeast,7.3
2021/04/05,04:20,4.1,north-northeast,7.0
2021/04/05,04:30,3.9,north,7.7
2021/04/05,04:40,3.8,north,7.6
2021/04/05,04:50,4.0,north,6.6
2021/04/05,05:00,4.0,north,7.7
2021/04/05,05:10,3.9,north,7.4
2021/04/05,05:20,3.9,north,6.3
2021/04/05,05:30,3.9,north,5.5
2021/04/05,05:40,3.8,north-northeast,5.9
2021/04/05,05:50,3.9,north-northeast,6.5
2021/04/05,06:00,4.0,north-northeast,5.6
2021/04/05,06:10,4.0,north-northeast,5.5
2021/04/05,06:20,3.8,north-northeast,5.8
2021/04/05,06:30,4.0,north-northeast,6.8
2021/04/05,06:40,4.0,north-northeast,8.9
2021/04/05,06:50,4.0,north-northeast,10.0
2021/04/05,07:00,4.0,north-northeast,10.8
2021/04/05,07:10,3.8,north-northeast,10.9
2021/04/05,07:20,3.8,north-northeast,10.5
2021/04/05,07:30,3.8,north-northeast,9.8
2021/04/05,07:40,3.9,north-northeast,9.4
2021/04/05,07:50,4.0,north-northeast,9.2
2021/04/05,08:00,4.1,north-northeast,9.2
2021/04/05,08:10,4.0,north-northeast,10.9
2021/04/05,08:20,3.9,north-northeast,11.0
2021/04/05,08:30,3.9,north-northeast,11.3
2021/04/05,08:40,3.9,north-northeast,10.8
2021/04/05,08:50,3.9,north-northeast,9.9
2021/04/05,09:00,3.9,north-northeast,10.6
2021/04/05,09:10,3.9,north-northeast,10.6
2021/04/05,09:20,3.8,north-northeast,9.7
2021/04/05,09:30,3.8,north-northeast,10.3
2021/04/05,09:40,3.9,north-northeast,10.6
2021/04/05,09:50,3.8,north-northeast,10.9
2021/04/05,10:00,4.0,north-northeast,9.5
2021/04/05,10:10,3.9,north-northeast,9.8
2021/04/05,10:20,4.1,north-northeast,9.6
2021/04/05,10:30,3.9,north-northeast,8.8
2021/04/05,10:40,3.9,north-northeast,11.1
2021/04/05,10:50,3.7,north-northeast,9.8
2021/04/05,11:00,3.9,north-northeast,11.6
2021/04/05,11:10,3.9,north-northeast,10.9
2021/04/05,11:20,3.8,north-northeast,11.7
2021/04/05,11:30,4.0,north-northeast,11.3
2021/04/05,11:40,3.7,north-northeast,10.8
2021/04/05,11:50,4.0,north-northeast,11.7
2021/04/05,12:00,4.0,northeast,10.7
2021/04/05,12:10,4.0,north-northeast,8.0
2021/04/05,12:20,3.7,north-northeast,7.5
2021/04/05,12:30,3.9,north-northeast,10.5
2021/04/05,12:40,3.8,north-northeast,11.0
2021/04/05,12:50,3.7,north-northeast,11.3
2021/04/05,13:00,4.0,north-northeast,10.5
2021/04/05,13:10,3.8,north-northeast,7.7
2021/04/05,13:20,3.9,north-northeast,8.0
2021/04/05,13:30,3.9,north-northeast,7.4
2021/04/05,13:40,4.0,north-northeast,7.5
2021/04/05,13:50,3.9,north-northeast,8.3
2021/04/05,14:00,3.9,north-northeast,8.9
2021/04/05,14:10,3.9,north-northeast,8.5
2021/04/05,14:20,3.7,north-northeast,9.7
2021/04/05,14:30,3.9,north-northeast,10.5
2021/04/05,14:40,4.0,north-northeast,10.2
2021/04/05,14:50,3.9,north-northeast,9.5
2021/04/05,15:00,3.9,north-northeast,9.1
2021/04/05,15:10,4.0,north-northeast,9.8
2021/04/05,15:20,3.8,north-northeast,9.6
2021/04/05,15:30,3.9,north-northeast,9.1
2021/04/05,15:40,3.8,north-northeast,10.9
2021/04/05,15:50,3.9,north-northeast,9.8
2021/04/05,16:00,3.9,north-northeast,10.2
2021/04/05,16:10,3.9,north-northeast,10.2
2021/04/05,16:20,3.9,north-northeast,9.1
2021/04/05,16:30,3.7,north-northeast,9.7
2021/04/05,16:40,3.8,north-northeast,8.4
2021/04/05,16:50,3.9,north-northeast,8.2
2021/04/05,17:00,3.9,north-northeast,8.0
2021/04/05,17:10,4.0,north-northeast,7.1
2021/04/05,17:20,3.9,north,6.2
2021/04/05,17:30,4.1,north,6.0
2021/04/05,17:40,4.1,north,7.2
2021/04/05,17:50,3.9,north,5.6
2021/04/05,18:00,3.9,north,7.7
2021/04/05,18:10,4.0,north-northeast,7.9
2021/04/05,18:20,3.9,north-northeast,8.5
2021/04/05,18:30,3.8,north-northeast,9.6
2021/04/05,18:40,3.9,north-northeast,9.0
2021/04/05,18:50,4.0,north-northeast,10.6
2021/04/05,19:00,4.0,north-northeast,8.0
2021/04/05,19:10,4.0,north-northeast,7.0
2021/04/05,19:20,3.8,north-northeast,8.2
2021/04/05,19:30,3.8,north,8.1
2021/04/05,19:40,3.8,north,5.7
2021/04/05,19:50,3.8,north,6.7
2021/04/05,20:00,3.9,north-northeast,8.8
2021/04/05,20:10,4.0,north-northeast,11.0
2021/04/05,20:20,4.0,north-northeast,10.8
2021/04/05,20:30,3.8,north-northeast,10.9
2021/04/05,20:40,4.0,north-northeast,10.9
2021/04/05,20:50,3.9,north-northeast,11.3
2021/04/05,21:00,3.7,north-northeast,10.8
2021/04/05,21:10,4.0,north-northeast,10.9
2021/04/05,21:20,4.0,north-northeast,11.4
2021/04/05,21:30,3.9,north-northeast,11.7
2021/04/05,21:40,3.6,north-northeast,11.1
2021/04/05,21:50,3.9,north-northeast,10.7
2021/04/05,22:00,3.9,north-northeast,10.5
2021/04/05,22:10,4.1,north-northeast,11.1
2021/04/05,22:20,3.9,north-northeast,10.7
2021/04/05,22:30,3.9,north-northeast,11.0
2021/04/05,22:40,3.9,north-northeast,11.6
2021/04/05,22:50,3.9,north-northeast,11.3
2021/04/05,23:00,3.9,north-northeast,10.2
2021/04/05,23:10,4.0,north-northeast,10.2
2021/04/05,23:20,3.8,north,10.0
2021/04/05,23:30,3.7,north-northeast,11.4
2021/04/05,23:40,3.9,north-northeast,9.8
2021/04/05,23:50,4.0,north-northeast,9.6
